Year,Month,Day,Hour,Minute,Value (Times are PST for temperature in C)
2020,04,01,08,42,17.40
2020,04,01,08,43,17.40
2020,04,01,08,44,17.40
2020,04,01,08,45,17.40
2020,04,01,08,46,17.40
2020,04,01,08,47,17.40
2020,04,01,08,48,17.40
2020,04,01,08,49,17.40
2020,04,01,08,50,17.40
2020,04,01,08,51,17.40
2020,04,01,08,52,17.40
2020,04,01,08,53,17.40
2020,04,01,08,54,17.40
2020,04,01,09,27,17.50
2020,04,01,09,28,17.50
2020,04,01,09,29,17.40
2020,04,01,09,30,17.40
2020,04,01,09,31,17.40
2020,04,01,09,32,17.40
2020,04,01,09,33,17.40
2020,04,01,09,34,17.40
2020,04,01,09,35,17.40
2020,04,01,09,36,17.40
2020,04,01,09,37,17.40
2020,04,01,09,38,17.40
2020,04,01,10,28,20.10
2020,04,01,10,29,20.30
2020,04,01,10,30,20.40
2020,04,01,10,31,20.40
2020,04,01,10,32,20.40
2020,04,01,10,33,20.40
2020,04,01,10,34,20.40
2020,04,01,10,35,20.40
2020,04,01,10,36,20.40
2020,04,01,10,37,20.40
2020,04,01,10,38,20.40
2020,04,01,10,39,20.40
2020,04,01,10,40,20.40
2020,04,01,11,13,24.60
2020,04,01,11,14,24.60
2020,04,01,11,15,24.60
2020,04,01,11,16,24.60
2020,04,01,11,17,24.70
2020,04,01,11,18,24.70
2020,04,01,11,19,24.80
2020,04,01,11,20,24.70
2020,04,01,11,21,24.70
2020,04,01,11,22,24.60
2020,04,01,11,23,24.60
2020,04,01,11,24,24.60
2020,04,01,11,25,24.60
2020,04,01,11,26,24.70
2020,04,01,11,27,24.80
2020,04,01,11,28,24.80
2020,04,01,11,29,24.90
2020,04,01,11,30,24.90
2020,04,01,11,31,25.00
2020,04,01,11,32,25.00
2020,04,01,11,33,25.10
2020,04,01,11,34,25.20
2020,04,01,11,35,25.20
2020,04,01,11,36,25.30
2020,04,01,11,37,25.30
2020,04,01,11,38,25.30
2020,04,01,11,39,25.40
2020,04,01,11,40,25.60
2020,04,01,11,41,25.80
2020,04,01,11,42,26.00
2020,04,01,11,43,26.20
2020,04,01,11,44,26.30
2020,04,01,11,45,26.40
2020,04,01,11,46,26.40
2020,04,01,11,47,26.50
2020,04,01,11,48,26.50
2020,04,01,11,49,26.60
2020,04,01,11,50,26.60
2020,04,01,11,51,26.60
2020,04,01,11,52,26.80
2020,04,01,11,53,26.90
2020,04,01,11,54,27.00
2020,04,01,11,55,27.20
2020,04,01,11,56,27.30
2020,04,01,11,57,27.30
2020,04,01,11,58,27.40
2020,04,01,11,59,27.30
2020,04,01,12,00,27.30
2020,04,01,12,01,27.20
2020,04,01,12,02,27.30
2020,04,01,12,03,27.30
2020,04,01,12,04,27.40
2020,04,01,12,05,27.50
2020,04,01,12,06,27.60
2020,04,01,12,07,27.70
2020,04,01,12,08,27.90
2020,04,01,12,09,27.90
2020,04,01,12,10,28.00
2020,04,01,12,11,28.00
2020,04,01,12,12,28.10
2020,04,01,12,13,28.10
2020,04,01,12,14,28.20
2020,04,01,12,15,28.40
2020,04,01,12,16,28.60
2020,04,01,12,17,28.70
2020,04,01,12,18,28.70
2020,04,01,12,19,28.80
2020,04,01,12,20,28.90
2020,04,01,12,21,28.90
2020,04,01,12,22,29.00
2020,04,01,12,23,29.10
2020,04,01,12,24,29.10
2020,04,01,12,25,29.20
2020,04,01,12,26,29.30
2020,04,01,12,27,29.40
2020,04,01,12,28,29.40
2020,04,01,12,29,29.40
2020,04,01,12,30,29.50
2020,04,01,12,31,29.50
2020,04,01,12,32,29.50
2020,04,01,12,33,29.60
2020,04,01,12,34,29.60
2020,04,01,12,35,29.70
2020,04,01,12,36,29.70
2020,04,01,12,37,29.80
2020,04,01,12,38,29.90
2020,04,01,12,39,29.90
2020,04,01,12,40,30.00
2020,04,01,12,41,30.10
2020,04,01,12,42,30.20
2020,04,01,12,43,30.20
2020,04,01,12,44,30.30
2020,04,01,12,45,30.40
2020,04,01,12,46,30.50
2020,04,01,12,47,30.60
2020,04,01,12,48,30.50
2020,04,01,12,49,30.50
2020,04,01,12,50,30.50
2020,04,01,12,51,30.50
2020,04,01,12,52,30.50
2020,04,01,12,53,30.50
2020,04,01,12,54,30.40
2020,04,01,12,55,30.50
2020,04,01,12,56,30.50
2020,04,01,12,57,30.60
2020,04,01,12,58,30.70
2020,04,01,12,59,30.70
2020,04,01,13,00,30.70
2020,04,01,13,01,30.70
2020,04,01,13,02,30.80
2020,04,01,13,03,30.80
2020,04,01,13,04,30.90
2020,04,01,13,05,30.90
2020,04,01,13,06,31.00
2020,04,01,13,07,31.10
2020,04,01,13,08,31.10
2020,04,01,13,09,31.10
2020,04,01,13,10,31.10
2020,04,01,13,11,31.00
2020,04,01,13,12,31.00
2020,04,01,13,13,30.90
2020,04,01,13,14,30.90
2020,04,01,13,15,30.80
2020,04,01,13,16,30.70
2020,04,01,13,17,30.70
2020,04,01,13,18,30.70
2020,04,01,13,19,30.70
2020,04,01,13,20,30.80
2020,04,01,13,21,30.90
2020,04,01,13,22,31.00
2020,04,01,13,23,31.10
2020,04,01,13,24,31.10
2020,04,01,13,25,31.00
2020,04,01,13,26,31.00
2020,04,01,13,27,30.90
2020,04,01,13,28,30.80
2020,04,01,13,29,30.90
2020,04,01,13,30,31.00
2020,04,01,13,31,31.10
2020,04,01,13,32,31.10
2020,04,01,13,33,30.90
2020,04,01,13,34,30.80
2020,04,01,13,35,30.70
2020,04,01,13,36,30.70
2020,04,01,13,37,30.60
2020,04,01,13,38,30.60
2020,04,01,13,39,30.60
2020,04,01,13,40,30.60
2020,04,01,13,41,30.70
2020,04,01,13,42,30.70
2020,04,01,13,43,30.70
2020,04,01,13,44,30.70
2020,04,01,13,45,30.70
2020,04,01,13,46,30.70
2020,04,01,13,47,30.80
2020,04,01,13,48,30.90
2020,04,01,13,49,31.00
2020,04,01,13,50,31.10
2020,04,01,13,51,31.20
2020,04,01,13,52,31.20
2020,04,01,13,53,31.30
2020,04,01,13,54,31.40
2020,04,01,13,55,31.50
2020,04,01,13,56,31.50
2020,04,01,13,57,31.50
2020,04,01,13,58,31.50
2020,04,01,13,59,31.40
2020,04,01,14,00,31.30
2020,04,01,14,01,31.30
2020,04,01,14,02,31.20
2020,04,01,14,03,31.20
2020,04,01,14,04,31.20
2020,04,01,14,05,31.20
2020,04,01,14,06,31.10
2020,04,01,14,07,31.20
2020,04,01,14,08,31.30
2020,04,01,14,09,31.40
2020,04,01,14,10,31.60
2020,04,01,14,11,31.70
2020,04,01,14,12,31.70
2020,04,01,14,13,31.80
2020,04,01,14,14,31.90
2020,04,01,14,15,32.00
2020,04,01,14,16,32.10
2020,04,01,14,17,32.20
2020,04,01,14,18,32.20
2020,04,01,14,19,32.20
2020,04,01,14,20,32.10
2020,04,01,14,21,32.00
2020,04,01,14,22,31.90
2020,04,01,14,23,31.80
2020,04,01,14,24,31.70
2020,04,01,14,25,31.70
2020,04,01,14,26,31.70
2020,04,01,14,27,31.70
2020,04,01,14,28,31.80
2020,04,01,14,29,31.80
2020,04,01,14,30,31.80
2020,04,01,14,31,31.80
2020,04,01,14,32,31.80
2020,04,01,14,33,31.70
2020,04,01,14,34,31.80
2020,04,01,14,35,31.80
2020,04,01,14,36,31.80
2020,04,01,14,37,31.80
2020,04,01,14,38,31.90
2020,04,01,14,39,31.90
2020,04,01,14,40,31.90
2020,04,01,14,41,31.90
2020,04,01,14,42,31.90
2020,04,01,14,43,31.90
2020,04,01,14,44,31.80
2020,04,01,14,45,31.70
2020,04,01,14,46,31.60
2020,04,01,14,47,31.50
2020,04,01,14,48,31.40
2020,04,01,14,49,31.30
2020,04,01,14,50,31.20
2020,04,01,14,51,31.10
2020,04,01,14,52,31.00
2020,04,01,14,53,31.00
2020,04,01,14,54,30.90
2020,04,01,14,55,30.80
2020,04,01,14,56,30.80
2020,04,01,14,57,30.70
2020,04,01,14,58,30.70
2020,04,01,14,59,30.70
2020,04,01,15,00,30.60
2020,04,01,15,01,30.60
2020,04,01,15,02,30.60
2020,04,01,15,03,30.60
2020,04,01,15,04,30.60
2020,04,01,15,05,30.70
2020,04,01,15,06,30.80
2020,04,01,15,07,31.00
2020,04,01,15,08,31.10
2020,04,01,15,09,31.20
2020,04,01,15,10,31.20
2020,04,01,15,11,31.20
2020,04,01,15,12,31.30
2020,04,01,15,13,31.30
2020,04,01,15,14,31.20
2020,04,01,15,15,31.20
2020,04,01,15,16,31.10
2020,04,01,15,17,31.10
2020,04,01,15,18,31.10
2020,04,01,15,19,31.00
2020,04,01,15,20,31.00
2020,04,01,15,21,30.90
2020,04,01,15,22,30.80
2020,04,01,15,23,30.80
2020,04,01,15,24,30.70
2020,04,01,15,25,30.60
2020,04,01,15,26,30.50
2020,04,01,15,27,30.40
2020,04,01,15,28,30.30
2020,04,01,15,29,30.30
2020,04,01,15,30,30.30
2020,04,01,15,31,30.20
2020,04,01,15,32,30.10
2020,04,01,15,33,30.10
2020,04,01,15,34,30.10
2020,04,01,15,35,30.10
2020,04,01,15,36,30.20
2020,04,01,15,37,30.10
2020,04,01,15,38,30.10
2020,04,01,15,39,30.00
2020,04,01,15,40,30.00
2020,04,01,15,41,30.00
2020,04,01,15,42,30.10
2020,04,01,15,43,30.10
2020,04,01,15,44,30.10
2020,04,01,15,45,30.10
2020,04,01,15,46,30.10
2020,04,01,15,47,30.10
2020,04,01,15,48,30.20
2020,04,01,15,49,30.20
2020,04,01,15,50,30.10
2020,04,01,15,51,30.00
2020,04,01,15,52,29.90
2020,04,01,15,53,29.90
2020,04,01,15,54,29.90
2020,04,01,15,55,29.90
2020,04,01,15,56,29.90
2020,04,01,15,57,30.00
2020,04,01,15,58,30.00
2020,04,01,15,59,30.00
2020,04,01,16,00,30.10
2020,04,01,16,01,30.10
2020,04,01,16,02,30.20
2020,04,01,16,03,30.30
2020,04,01,16,04,30.40
2020,04,01,16,05,30.50
2020,04,01,16,06,30.60
2020,04,01,16,07,30.60
2020,04,01,16,08,30.70
2020,04,01,16,09,30.80
2020,04,01,16,10,30.80
2020,04,01,16,11,30.80
2020,04,01,16,12,30.80
2020,04,01,16,13,30.90
2020,04,01,16,14,30.90
2020,04,01,16,15,30.90
2020,04,01,16,16,31.00
2020,04,01,16,17,30.90
2020,04,01,16,18,30.80
2020,04,01,16,19,30.70
2020,04,01,16,20,30.70
2020,04,01,16,21,30.70
2020,04,01,16,22,30.70
2020,04,01,16,23,30.70
2020,04,01,16,24,30.70
2020,04,01,16,25,30.70
2020,04,01,16,26,30.70
2020,04,01,16,27,30.70
2020,04,01,16,28,30.80
2020,04,01,16,29,30.80
2020,04,01,16,30,30.80
2020,04,01,16,31,30.80
2020,04,01,16,32,30.80
2020,04,01,16,33,30.80
2020,04,01,16,34,30.80
2020,04,01,16,35,30.80
2020,04,01,16,36,30.90
2020,04,01,16,37,30.90
2020,04,01,16,38,30.90
2020,04,01,16,39,30.90
2020,04,01,16,40,31.00
2020,04,01,16,41,31.00
2020,04,01,16,42,30.90
2020,04,01,16,43,30.90
2020,04,01,16,44,30.80
2020,04,01,16,45,30.70
2020,04,01,16,46,30.50
2020,04,01,16,47,30.40
2020,04,01,16,48,30.30
2020,04,01,16,49,30.20
2020,04,01,16,50,30.10
2020,04,01,16,51,30.10
2020,04,01,16,52,30.10
2020,04,01,16,53,30.10
2020,04,01,16,54,30.10
2020,04,01,16,55,30.10
2020,04,01,16,56,30.10
2020,04,01,16,57,30.20
2020,04,01,16,58,30.20
2020,04,01,16,59,30.30
2020,04,01,17,00,30.30
2020,04,01,17,01,30.30
2020,04,01,17,02,30.30
2020,04,01,17,03,30.30
2020,04,01,17,04,30.30
2020,04,01,17,05,30.40
2020,04,01,17,06,30.40
2020,04,01,17,07,30.40
2020,04,01,17,08,30.40
2020,04,01,17,09,30.40
2020,04,01,17,10,30.50
2020,04,01,17,11,30.50
2020,04,01,17,12,30.60
2020,04,01,17,13,30.60
2020,04,01,17,14,30.60
2020,04,01,17,15,30.60
2020,04,01,17,16,30.70
2020,04,01,17,17,30.70
2020,04,01,17,18,30.80
2020,04,01,17,19,30.80
2020,04,01,17,20,30.80
2020,04,01,17,21,30.90
2020,04,01,17,22,30.90
2020,04,01,17,23,30.80
2020,04,01,17,24,30.70
2020,04,01,17,25,30.60
2020,04,01,17,26,30.40
2020,04,01,17,27,30.30
2020,04,01,17,28,30.20
2020,04,01,17,29,30.10
2020,04,01,17,30,30.00
2020,04,01,17,31,29.90
2020,04,01,17,32,29.80
2020,04,01,17,33,29.70
2020,04,01,17,34,29.60
2020,04,01,17,35,29.50
2020,04,01,17,36,29.40
2020,04,01,17,37,29.30
2020,04,01,17,38,29.20
2020,04,01,17,39,29.10
2020,04,01,17,40,29.00
2020,04,01,17,41,29.00
2020,04,01,17,42,28.90
2020,04,01,17,43,28.90
2020,04,01,17,44,28.90
2020,04,01,17,45,28.80
2020,04,01,17,46,28.80
2020,04,01,17,47,28.80
2020,04,01,17,48,28.80
2020,04,01,17,49,28.80
2020,04,01,17,50,28.80
2020,04,01,17,51,28.80
2020,04,01,17,52,28.70
2020,04,01,17,53,28.70
2020,04,01,17,54,28.60
2020,04,01,17,55,28.60
2020,04,01,17,56,28.60
2020,04,01,17,57,28.50
2020,04,01,17,58,28.50
2020,04,01,17,59,28.40
2020,04,01,18,00,28.30
2020,04,01,18,01,28.30
2020,04,01,18,02,28.20
2020,04,01,18,03,28.10
2020,04,01,18,04,28.10
2020,04,01,18,05,28.00
2020,04,01,18,06,28.00
2020,04,01,18,07,27.90
2020,04,01,18,08,27.80
2020,04,01,18,09,27.80
2020,04,01,18,10,27.80
2020,04,01,18,11,27.70
2020,04,01,18,12,27.70
2020,04,01,18,13,27.70
2020,04,01,18,14,27.60
2020,04,01,18,15,27.60
2020,04,01,18,16,27.50
2020,04,01,18,17,27.50
2020,04,01,18,18,27.50
2020,04,01,18,19,27.40
2020,04,01,18,20,27.40
2020,04,01,18,21,27.30
2020,04,01,18,22,27.30
2020,04,01,18,23,27.30
2020,04,01,18,24,27.30
2020,04,01,18,25,27.30
2020,04,01,18,26,27.30
2020,04,01,18,27,27.40
2020,04,01,18,28,27.40
2020,04,01,18,29,27.50
2020,04,01,18,30,27.50
2020,04,01,18,31,27.50
2020,04,01,18,32,27.50
2020,04,01,18,33,27.50
2020,04,01,18,34,27.50
2020,04,01,18,35,27.50
2020,04,01,18,36,27.50
2020,04,01,18,37,27.40
2020,04,01,18,38,27.40
2020,04,01,18,39,27.40
2020,04,01,18,40,27.40
2020,04,01,18,41,27.40
2020,04,01,18,42,27.40
2020,04,01,18,43,27.40
2020,04,01,18,44,27.40
2020,04,01,18,45,27.40
2020,04,01,18,46,27.40
